Weather History for Carroll, IA

Change the Weather History Date:

Tuesday, May 13, 2014

  Actual Average Record
Temperature  
Mean Temperature 50 °F -  
Max Temperature 57 °F 69 °F 90 °F (1987)
Min Temperature 42 °F 44 °F 28 °F (1997)
Degree Days  
Heating Degree Days 14    
Moisture  
Dew Point 38 °F    
Average Humidity 64    
Maximum Humidity 87    
Minimum Humidity 41    
Precipitation  
Precipitation 0.00 in - - ()
Sea Level Pressure  
Sea Level Pressure 30.14 in    
Wind  
Wind Speed 17 mph (NW)    
Max Wind Speed 23 mph    
Max Gust Speed 32 mph    
Visibility 10 miles    
Events      
Averages and records for this station are not official NWS values.
T = Trace of Precipitation, MM = Missing Value Source: NWS Daily Summary

Daily Weather History Graph

Daily Weather History Graph

Search for Another Location

Airport:

Trip Planner

Search our weather history database for the weather conditions in past years. The results will help you decide how hot, cold, wet, or windy it might be!

Date:

Astronomy

May. 13, 2014 Rise Set
Actual Time 6:00 AM CDT 8:31 PM CDT
Civil Twilight 5:28 AM CDT 9:02 PM CDT
Nautical Twilight 4:49 AM CDT 9:42 PM CDT
Astronomical Twilight 4:05 AM CDT 10:27 PM CDT
Moon 7:32 PM CDT (5/13) 5:19 AM CDT (5/13)
Length of Visible Light 15h 34m
Length of Day
14h 30m
Waxing Gibbous, 99% of the Moon is Illuminated
May 13
Waxing Gibbous
May 14
Full
May 21
Last Quarter
May 28
New
Jun 5
First Quarter

Hourly Weather History & Observations

Time (CDT) Temp. Windchill Dew Point Humidity Pressure Visibility Wind Dir Wind Speed Gust Speed Precip Events Conditions
12:15 AM 46.4 °F 39.2 °F 42.8 °F 87% 29.98 in 10.0 mi NW 18.4 mph - N/A   Overcast
12:35 AM 46.4 °F 39.8 °F 42.8 °F 87% 29.98 in 10.0 mi NNW 16.1 mph 23.0 mph N/A   Overcast
1:15 AM 46.4 °F 39.2 °F 42.8 °F 87% 30.01 in - NW 18.4 mph - N/A   Overcast
1:35 AM 46.4 °F 39.8 °F 41.0 °F 81% 30.02 in 10.0 mi NW 16.1 mph 23.0 mph N/A   Overcast
1:55 AM 46.4 °F 39.5 °F 42.8 °F 87% 30.03 in 10.0 mi NW 17.3 mph - N/A   Overcast
2:15 AM 46.4 °F 39.0 °F 41.0 °F 81% 30.03 in 10.0 mi NW 19.6 mph - N/A   Overcast
2:35 AM 46.4 °F 39.2 °F 41.0 °F 81% 30.02 in 10.0 mi NW 18.4 mph 24.2 mph N/A   Overcast
2:55 AM 46.4 °F 39.5 °F 41.0 °F 81% 30.02 in 10.0 mi NW 17.3 mph - N/A   Overcast
3:15 AM 46.4 °F 38.7 °F 41.0 °F 81% 30.03 in 10.0 mi NW 20.7 mph - N/A   Overcast
3:35 AM 46.4 °F 39.5 °F 41.0 °F 81% 30.02 in 10.0 mi NNW 17.3 mph 25.3 mph N/A   Overcast
3:55 AM 46.4 °F 39.2 °F 41.0 °F 81% 30.02 in 10.0 mi NW 18.4 mph - N/A   Overcast
4:15 AM 46.4 °F 40.4 °F 41.0 °F 81% 30.02 in 10.0 mi NW 13.8 mph 21.9 mph N/A   Overcast
4:35 AM 46.4 °F 38.3 °F 39.2 °F 76% 30.02 in 10.0 mi NNW 23.0 mph 32.2 mph N/A   Overcast
4:55 AM 46.4 °F 39.2 °F 39.2 °F 76% 30.04 in 10.0 mi NNW 18.4 mph 32.2 mph N/A   Overcast
5:15 AM 46.4 °F 39.0 °F 39.2 °F 76% 30.04 in 10.0 mi NNW 19.6 mph 27.6 mph N/A   Overcast
5:35 AM 46.4 °F 40.1 °F 41.0 °F 81% 30.06 in 10.0 mi NW 15.0 mph 20.7 mph N/A   Overcast
5:55 AM 46.4 °F 39.2 °F 41.0 °F 81% 30.06 in 10.0 mi NW 18.4 mph - N/A   Overcast
6:15 AM 44.6 °F 36.9 °F 41.0 °F 87% 30.07 in 10.0 mi NW 18.4 mph 25.3 mph N/A   Overcast
6:35 AM 44.6 °F 36.9 °F 39.2 °F 81% 30.08 in 10.0 mi NW 18.4 mph 25.3 mph N/A   Overcast
6:55 AM 44.6 °F 36.6 °F 39.2 °F 81% 30.09 in 10.0 mi NW 19.6 mph - N/A   Overcast
7:15 AM 44.6 °F 36.6 °F 39.2 °F 81% 30.09 in 10.0 mi NW 19.6 mph 25.3 mph N/A   Overcast
8:15 AM 44.6 °F 37.4 °F 39.2 °F 81% 30.10 in 10.0 mi NNW 16.1 mph 26.5 mph N/A   Overcast
8:35 AM 44.6 °F 37.2 °F 39.2 °F 81% 30.11 in 10.0 mi NNW 17.3 mph 24.2 mph N/A   Overcast
9:15 AM 46.4 °F 39.2 °F 39.2 °F 76% 30.12 in 10.0 mi NNW 18.4 mph 25.3 mph N/A   Mostly Cloudy
11:35 AM 53.6 °F - 37.4 °F 54% 30.17 in 10.0 mi NNW 23.0 mph - N/A   Scattered Clouds
11:55 AM 53.6 °F - 35.6 °F 51% 30.18 in 10.0 mi NNW 20.7 mph 28.8 mph N/A   Scattered Clouds
12:15 PM 53.6 °F - 35.6 °F 51% 30.18 in 10.0 mi NNW 19.6 mph 28.8 mph N/A   Mostly Cloudy
12:35 PM 53.6 °F - 33.8 °F 47% 30.18 in 10.0 mi NNW 19.6 mph 32.2 mph N/A   Mostly Cloudy
12:55 PM 53.6 °F - 35.6 °F 51% 30.18 in 10.0 mi NNW 21.9 mph 28.8 mph N/A   Overcast
1:15 PM 53.6 °F - 35.6 °F 51% 30.18 in 10.0 mi NNW 20.7 mph - N/A   Overcast
1:35 PM 53.6 °F - 37.4 °F 54% 30.19 in 10.0 mi NW 19.6 mph - N/A   Overcast
1:55 PM 55.4 °F - 37.4 °F 51% 30.20 in 10.0 mi NW 20.7 mph 26.5 mph N/A   Mostly Cloudy
2:15 PM 55.4 °F - 35.6 °F 47% 30.19 in 10.0 mi NW 21.9 mph 29.9 mph N/A   Overcast
2:35 PM 57.2 °F - 35.6 °F 44% 30.19 in 10.0 mi NNW 17.3 mph 28.8 mph N/A   Overcast
2:55 PM 57.2 °F - 35.6 °F 44% 30.19 in 10.0 mi NW 21.9 mph 31.1 mph N/A   Mostly Cloudy
3:15 PM 57.2 °F - 35.6 °F 44% 30.19 in 10.0 mi NW 20.7 mph 28.8 mph N/A   Mostly Cloudy
3:35 PM 57.2 °F - 33.8 °F 41% 30.18 in 10.0 mi NNW 23.0 mph - N/A   Mostly Cloudy
3:55 PM 57.2 °F - 35.6 °F 44% 30.18 in 10.0 mi NNW 21.9 mph 27.6 mph N/A   Overcast
4:15 PM 55.4 °F - 35.6 °F 47% 30.18 in 10.0 mi NW 23.0 mph - N/A   Overcast
4:35 PM 57.2 °F - 35.6 °F 44% 30.18 in 10.0 mi NNW 20.7 mph - N/A   Overcast
4:55 PM 55.4 °F - 35.6 °F 47% 30.18 in 10.0 mi NNW 20.7 mph 27.6 mph N/A   Overcast
5:15 PM 55.4 °F - 33.8 °F 44% 30.19 in 10.0 mi NNW 16.1 mph 25.3 mph N/A   Mostly Cloudy
5:35 PM 57.2 °F - 33.8 °F 41% 30.19 in 10.0 mi NW 17.3 mph 26.5 mph N/A   Scattered Clouds
5:55 PM 55.4 °F - 33.8 °F 44% 30.19 in 10.0 mi NNW 15.0 mph - N/A   Scattered Clouds
6:15 PM 55.4 °F - 33.8 °F 44% 30.19 in 10.0 mi NNW 16.1 mph 23.0 mph N/A   Mostly Cloudy
6:35 PM 55.4 °F - 33.8 °F 44% 30.19 in 10.0 mi NNW 17.3 mph - N/A   Scattered Clouds
7:15 PM 55.4 °F - 33.8 °F 44% 30.20 in 10.0 mi NNW 11.5 mph - N/A   Mostly Cloudy
7:35 PM 53.6 °F - 35.6 °F 51% 30.21 in 10.0 mi NNW 15.0 mph - N/A   Overcast
7:55 PM 53.6 °F - 35.6 °F 51% 30.21 in 10.0 mi NNW 11.5 mph - N/A   Overcast
8:15 PM 53.6 °F - 33.8 °F 47% 30.22 in 10.0 mi NNW 10.4 mph - N/A   Mostly Cloudy
8:35 PM 51.8 °F - 35.6 °F 54% 30.22 in 10.0 mi NNW 8.1 mph - N/A   Overcast
8:55 PM 50.0 °F - 35.6 °F 58% 30.23 in 10.0 mi NW 8.1 mph - N/A   Mostly Cloudy
9:15 PM 50.0 °F - 35.6 °F 58% 30.23 in 10.0 mi NW 6.9 mph - N/A   Scattered Clouds
9:35 PM 48.2 °F - 37.4 °F 66% 30.24 in 10.0 mi WNW 6.9 mph - N/A   Mostly Cloudy
9:55 PM 48.2 °F - 37.4 °F 66% 30.26 in 10.0 mi WNW 5.8 mph - N/A   Mostly Cloudy
10:15 PM 48.2 °F - 37.4 °F 66% 30.26 in 10.0 mi WNW 8.1 mph - N/A   Overcast
10:35 PM 48.2 °F - 37.4 °F 66% 30.27 in 10.0 mi WNW 5.8 mph - N/A   Overcast
10:55 PM 46.4 °F 43.5 °F 39.2 °F 76% 30.27 in 10.0 mi WNW 5.8 mph - N/A   Overcast
11:15 PM 46.4 °F 43.5 °F 39.2 °F 76% 30.27 in 10.0 mi WNW 5.8 mph - N/A   Mostly Cloudy
11:35 PM 44.6 °F 40.7 °F 37.4 °F 76% 30.27 in 10.0 mi WNW 6.9 mph - N/A   Clear
11:55 PM 42.8 °F 38.6 °F 37.4 °F 81% 30.27 in 10.0 mi WNW 6.9 mph - N/A   Clear